| time (UTC) | temp C | wind direction | speed KPH | gust KPH | rain 1hr cm | rain 24hr cm | rain mn cm | humidity % | barometer mb |
| 20260506204711 | 18 | 96 | 6.4 | 16.1 | 0.00 | 0.10 | 0.10 | 62 | 1013.7 |
| 20260506204208 | 18 | 125 | 4.8 | 8.0 | 0.00 | 0.10 | 0.10 | 62 | 1013.6 |
| 20260506203707 | 18 | 117 | 3.2 | 9.7 | 0.00 | 0.10 | 0.10 | 65 | 1013.6 |
| 20260506203203 | 18 | 87 | 6.4 | 12.9 | 0.00 | 0.10 | 0.10 | 63 | 1013.6 |
| 20260506202701 | 17 | 57 | 4.8 | 11.3 | 0.00 | 0.10 | 0.10 | 66 | 1013.5 |
| 20260506202157 | 18 | 86 | 11.3 | 12.9 | 0.00 | 0.10 | 0.10 | 63 | 1013.6 |
| 20260506201654 | 18 | 131 | 9.7 | 9.7 | 0.00 | 0.10 | 0.10 | 64 | 1013.8 |
| 20260506201150 | 17 | 92 | 6.4 | 9.7 | 0.00 | 0.10 | 0.10 | 64 | 1014.0 |
| 20260506200647 | 17 | 228 | 0.0 | 4.8 | 0.00 | 0.10 | 0.10 | 63 | 1013.9 |
| 20260506200144 | 17 | 321 | 4.8 | 12.9 | 0.00 | 0.10 | 0.10 | 64 | 1014.4 |
| 20260506195640 | 17 | 47 | 6.4 | 9.7 | 0.00 | 0.10 | 0.10 | 63 | 1014.0 |
| 20260506195137 | 17 | 81 | 6.4 | 8.0 | 0.00 | 0.10 | 0.10 | 64 | 1014.2 |
| 20260506194634 | 17 | 70 | 3.2 | 6.4 | 0.00 | 0.10 | 0.10 | 64 | 1014.1 |
| 20260506194131 | 17 | 83 | 1.6 | 12.9 | 0.00 | 0.10 | 0.10 | 64 | 1014.2 |
| 20260506193629 | 17 | 101 | 4.8 | 8.0 | 0.00 | 0.10 | 0.10 | 65 | 1014.5 |
| 20260506193125 | 17 | 83 | 8.0 | 12.9 | 0.00 | 0.10 | 0.10 | 66 | 1014.4 |
| 20260506192622 | 17 | 78 | 9.7 | 9.7 | 0.00 | 0.10 | 0.10 | 63 | 1014.6 |
| 20260506192118 | 16 | 85 | 6.4 | 11.3 | 0.00 | 0.10 | 0.10 | 68 | 1014.9 |
| 20260506191615 | 16 | 94 | 6.4 | 12.9 | 0.00 | 0.10 | 0.10 | 66 | 1014.8 |
| 20260506191111 | 16 | 99 | 6.4 | 12.9 | 0.00 | 0.10 | 0.10 | 67 | 1015.0 |
| 20260506190609 | 16 | 81 | 8.0 | 11.3 | 0.00 | 0.10 | 0.10 | 67 | 1015.1 |
| 20260506190105 | 16 | 98 | 6.4 | 22.5 | 0.00 | 0.10 | 0.10 | 67 | 1014.8 |
| 20260506185603 | 16 | 100 | 6.4 | 8.0 | 0.00 | 0.10 | 0.10 | 66 | 1014.9 |
| 20260506185059 | 16 | 56 | 3.2 | 14.5 | 0.00 | 0.10 | 0.10 | 67 | 1014.7 |
| 20260506184556 | 16 | 56 | 4.8 | 6.4 | 0.00 | 0.10 | 0.10 | 66 | 1014.6 |
| 20260506184053 | 16 | 102 | 8.0 | 9.7 | 0.00 | 0.10 | 0.10 | 68 | 1014.2 |
| 20260506183549 | 16 | 27 | 6.4 | 16.1 | 0.00 | 0.10 | 0.10 | 69 | 1014.1 |
| 20260506183046 | 15 | 77 | 6.4 | 12.9 | 0.00 | 0.10 | 0.10 | 69 | 1014.4 |
| 20260506182543 | 15 | 296 | 6.4 | 19.3 | 0.00 | 0.10 | 0.10 | 73 | 1014.7 |
| 20260506182041 | 15 | 20 | 6.4 | 16.1 | 0.00 | 0.10 | 0.10 | 72 | 1014.6 |
| 20260506181539 | 15 | 0 | 6.4 | 11.3 | 0.00 | 0.10 | 0.10 | 70 | 1014.7 |
| 20260506181035 | 15 | 328 | 6.4 | 9.7 | 0.00 | 0.10 | 0.10 | 72 | 1014.5 |
| 20260506180531 | 15 | 104 | 6.4 | 16.1 | 0.00 | 0.10 | 0.10 | 73 | 1014.4 |
| 20260506180028 | 15 | 317 | 12.9 | 19.3 | 0.00 | 0.10 | 0.10 | 71 | 1014.2 |
| 20260506175525 | 15 | 28 | 9.7 | 20.9 | 0.00 | 0.10 | 0.10 | 72 | 1014.5 |
| 20260506175021 | 15 | 39 | 4.8 | 14.5 | 0.00 | 0.10 | 0.10 | 74 | 1014.7 |
| 20260506174520 | 14 | 48 | 3.2 | 9.7 | 0.00 | 0.10 | 0.10 | 77 | 1014.8 |
| 20260506174015 | 13 | 34 | 6.4 | 12.9 | 0.00 | 0.10 | 0.10 | 77 | 1014.9 |
| 20260506173513 | 13 | 77 | 3.2 | 11.3 | 0.00 | 0.10 | 0.10 | 79 | 1015.0 |
| 20260506173010 | 13 | 41 | 11.3 | 12.9 | 0.00 | 0.10 | 0.10 | 77 | 1015.0 |
| 20260506172508 | 13 | 50 | 6.4 | 11.3 | 0.00 | 0.10 | 0.10 | 77 | 1014.9 |
| 20260506172003 | 12 | 72 | 6.4 | 22.5 | 0.00 | 0.10 | 0.10 | 79 | 1014.2 |
| 20260506171501 | 12 | 81 | 6.4 | 14.5 | 0.00 | 0.10 | 0.10 | 79 | 1014.7 |
| 20260506170959 | 12 | 68 | 14.5 | 17.7 | 0.00 | 0.10 | 0.10 | 80 | 1014.7 |
| 20260506170455 | 12 | 12 | 12.9 | 19.3 | 0.00 | 0.10 | 0.10 | 80 | 1014.9 |
| 20260506165953 | 12 | 85 | 12.9 | 12.9 | 0.00 | 0.10 | 0.10 | 81 | 1014.8 |
| 20260506165452 | 12 | 93 | 6.4 | 12.9 | 0.00 | 0.10 | 0.10 | 83 | 1014.4 |
| 20260506164948 | 12 | 74 | 4.8 | 9.7 | 0.00 | 0.10 | 0.10 | 85 | 1014.4 |
| 20260506164444 | 11 | 328 | 6.4 | 12.9 | 0.00 | 0.10 | 0.10 | 85 | 1014.6 |
| 20260506163942 | 11 | 92 | 6.4 | 9.7 | 0.00 | 0.10 | 0.10 | 85 | 1014.9 |
| 20260506163437 | 11 | 107 | 6.4 | 17.7 | 0.00 | 0.10 | 0.10 | 86 | 1014.7 |
| 20260506162932 | 11 | 81 | 6.4 | 14.5 | 0.00 | 0.10 | 0.10 | 87 | 1014.4 |
| 20260506162431 | 11 | 73 | 8.0 | 19.3 | 0.00 | 0.10 | 0.10 | 86 | 1014.4 |
| 20260506161927 | 11 | 73 | 6.4 | 14.5 | 0.00 | 0.10 | 0.10 | 87 | 1014.1 |
| 20260506161426 | 11 | 29 | 8.0 | 16.1 | 0.00 | 0.10 | 0.10 | 88 | 1014.4 |
| 20260506160923 | 11 | 124 | 3.2 | 16.1 | 0.00 | 0.10 | 0.10 | 88 | 1014.4 |
| 20260506160420 | 11 | 37 | 6.4 | 9.7 | 0.00 | 0.10 | 0.10 | 88 | 1014.5 |
| 20260506155917 | 11 | 53 | 9.7 | 14.5 | 0.00 | 0.10 | 0.10 | 88 | 1014.5 |
| 20260506155415 | 11 | 29 | 9.7 | 24.1 | 0.00 | 0.10 | 0.10 | 88 | 1014.4 |
| 20260506153536 | 11 | 44 | 8.0 | 19.3 | 0.00 | 0.10 | 0.10 | 90 | 1013.8 |
| 20260506153034 | 10 | 62 | 4.8 | 16.1 | 0.00 | 0.10 | 0.10 | 91 | 1014.0 |
| 20260506152531 | 10 | 96 | 9.7 | 19.3 | 0.00 | 0.10 | 0.10 | 91 | 1014.4 |
| 20260506152029 | 10 | 83 | 6.4 | 20.9 | 0.00 | 0.10 | 0.10 | 91 | 1014.2 |
| 20260506151526 | 10 | 59 | 9.7 | 16.1 | 0.05 | 0.10 | 0.10 | 92 | 1014.6 |
| 20260506151023 | 10 | 102 | 8.0 | 17.7 | 0.05 | 0.10 | 0.10 | 92 | 1014.9 |
| 20260506150519 | 10 | 54 | 9.7 | 16.1 | 0.05 | 0.10 | 0.10 | 93 | 1014.5 |
| 20260506150017 | 10 | 48 | 9.7 | 11.3 | 0.05 | 0.10 | 0.10 | 93 | 1014.6 |
| 20260506145513 | 10 | 108 | 3.2 | 19.3 | 0.05 | 0.08 | 0.08 | 92 | 1014.7 |
| 20260506145011 | 10 | 87 | 8.0 | 12.9 | 0.05 | 0.08 | 0.08 | 92 | 1015.1 |
| 20260506144507 | 10 | 16 | 4.8 | 6.4 | 0.05 | 0.08 | 0.08 | 91 | 1016.3 |
| 20260506144005 | 10 | 347 | 1.6 | 4.8 | 0.13 | 0.08 | 0.08 | 91 | 1016.7 |
| 20260506143502 | 10 | 232 | 3.2 | 3.2 | 0.18 | 0.05 | 0.05 | 91 | 1016.6 |
| 20260506143001 | 10 | 93 | 4.8 | 4.8 | 0.05 | 0.05 | 0.05 | 91 | 1016.5 |
| 20260506142458 | 10 | 40 | 3.2 | 11.3 | 0.05 | 0.03 | 0.03 | 91 | 1015.1 |
| 20260506141956 | 10 | 68 | 6.4 | 8.0 | 0.05 | 0.03 | 0.03 | 91 | 1015.0 |
| 20260506141453 | 10 | 89 | 8.0 | 17.7 | 0.05 | 0.03 | 0.03 | 91 | 1014.1 |
| 20260506140952 | 10 | 141 | 3.2 | 8.0 | 0.00 | 0.00 | 0.00 | 91 | 1014.1 |
| 20260506140448 | 10 | 106 | 4.8 | 16.1 | 0.05 | 0.00 | 0.00 | 90 | 1014.0 |
| 20260506135945 | 10 | 85 | 9.7 | 11.3 | 0.05 | 0.00 | 0.00 | 89 | 1014.1 |
| 20260506135442 | 10 | 62 | 8.0 | 14.5 | 0.00 | 0.00 | 0.00 | 89 | 1014.0 |
| 20260506134938 | 10 | 63 | 8.0 | 14.5 | 0.00 | 0.00 | 0.00 | 88 | 1014.8 |
| 20260506134434 | 10 | 61 | 4.8 | 9.7 | 0.00 | 0.00 | 0.00 | 88 | 1015.3 |
| 20260506133932 | 10 | 59 | 8.0 | 12.9 | 0.00 | 0.00 | 0.00 | 87 | 1014.8 |
| 20260506133429 | 10 | 34 | 4.8 | 11.3 | 0.00 | 0.00 | 0.00 | 87 | 1015.3 |
| 20260506132925 | 10 | 50 | 3.2 | 8.0 | 0.00 | 0.00 | 0.00 | 87 | 1015.1 |
| 20260506132422 | 10 | 336 | 4.8 | 12.9 | 0.00 | 0.00 | 0.00 | 87 | 1015.2 |
| 20260506131920 | 10 | 101 | 6.4 | 14.5 | 0.00 | 0.00 | 0.00 | 87 | 1013.9 |
| 20260506131416 | 10 | 47 | 8.0 | 14.5 | 0.00 | 0.00 | 0.00 | 87 | 1013.8 |
| 20260506130913 | 10 | 74 | 8.0 | 19.3 | 0.00 | 0.00 | 0.00 | 86 | 1013.6 |
| 20260506130409 | 10 | 92 | 4.8 | 17.7 | 0.00 | 0.00 | 0.00 | 87 | 1013.5 |
| 20260506125908 | 10 | 51 | 8.0 | 16.1 | 0.00 | 0.00 | 0.00 | 86 | 1013.6 |
| 20260506125406 | 10 | 50 | 8.0 | 17.7 | 0.00 | 0.00 | 0.00 | 87 | 1013.7 |
| 20260506124904 | 10 | 67 | 4.8 | 20.9 | 0.00 | 0.00 | 0.00 | 87 | 1013.3 |
| 20260506124400 | 10 | 49 | 11.3 | 19.3 | 0.00 | 0.00 | 0.00 | 87 | 1013.3 |
| 20260506123858 | 10 | 40 | 9.7 | 16.1 | 0.00 | 0.00 | 0.00 | 87 | 1013.0 |
| 20260506123356 | 10 | 52 | 9.7 | 12.9 | 0.00 | 0.00 | 0.00 | 87 | 1012.8 |
| 20260506122854 | 10 | 36 | 12.9 | 16.1 | 0.00 | 0.00 | 0.00 | 87 | 1012.9 |
| 20260506122350 | 10 | 95 | 4.8 | 14.5 | 0.00 | 0.00 | 0.00 | 86 | 1013.1 |
| 20260506121849 | 10 | 42 | 12.9 | 17.7 | 0.00 | 0.00 | 0.00 | 86 | 1013.2 |
| 20260506121345 | 10 | 95 | 8.0 | 20.9 | 0.00 | 0.00 | 0.00 | 86 | 1013.0 |
| 20260506120842 | 10 | 87 | 6.4 | 16.1 | 0.00 | 0.00 | 0.00 | 85 | 1013.0 |
| 20260506120340 | 10 | 53 | 9.7 | 16.1 | 0.00 | 0.00 | 0.00 | 85 | 1013.0 |
| 20260506115837 | 10 | 28 | 4.8 | 11.3 | 0.00 | 0.00 | 0.00 | 84 | 1012.8 |
| 20260506115335 | 10 | 6 | 6.4 | 16.1 | 0.00 | 0.00 | 0.00 | 84 | 1012.8 |
| 20260506114833 | 10 | 24 | 9.7 | 19.3 | 0.00 | 0.00 | 0.00 | 84 | 1012.9 |
| 20260506114331 | 11 | 18 | 6.4 | 19.3 | 0.00 | 0.00 | 0.00 | 84 | 1012.9 |
| 20260506113829 | 11 | 304 | 3.2 | 16.1 | 0.00 | 0.00 | 0.00 | 84 | 1012.8 |
| 20260506113326 | 11 | 25 | 4.8 | 9.7 | 0.00 | 0.00 | 0.00 | 84 | 1012.7 |
| 20260506112823 | 11 | 5 | 9.7 | 17.7 | 0.00 | 0.00 | 0.00 | 84 | 1012.6 |
| 20260506112320 | 11 | 61 | 8.0 | 9.7 | 0.00 | 0.00 | 0.00 | 84 | 1012.7 |
| 20260506111817 | 11 | 351 | 4.8 | 9.7 | 0.00 | 0.00 | 0.00 | 84 | 1012.4 |
| 20260506111315 | 11 | 69 | 4.8 | 16.1 | 0.00 | 0.00 | 0.00 | 83 | 1012.3 |
| 20260506110813 | 11 | 85 | 11.3 | 20.9 | 0.00 | 0.00 | 0.00 | 83 | 1012.4 |
| 20260506110309 | 11 | 7 | 11.3 | 17.7 | 0.00 | 0.00 | 0.00 | 83 | 1012.0 |
| 20260506105806 | 11 | 20 | 8.0 | 19.3 | 0.00 | 0.00 | 0.00 | 83 | 1012.1 |
| 20260506105305 | 11 | 17 | 4.8 | 19.3 | 0.00 | 0.00 | 0.00 | 83 | 1011.8 |
| 20260506104800 | 11 | 40 | 4.8 | 14.5 | 0.00 | 0.00 | 0.00 | 83 | 1011.8 |
| 20260506104258 | 11 | 38 | 9.7 | 14.5 | 0.00 | 0.00 | 0.00 | 83 | 1011.5 |
| 20260506103755 | 11 | 332 | 12.9 | 20.9 | 0.00 | 0.00 | 0.00 | 82 | 1011.6 |
| 20260506103253 | 12 | 21 | 8.0 | 20.9 | 0.00 | 0.00 | 0.00 | 81 | 1011.8 |
| 20260506102750 | 12 | 62 | 9.7 | 12.9 | 0.00 | 0.00 | 0.00 | 82 | 1011.6 |
| 20260506102248 | 12 | 8 | 3.2 | 14.5 | 0.00 | 0.00 | 0.00 | 81 | 1011.7 |
| 20260506101745 | 12 | 47 | 8.0 | 16.1 | 0.00 | 0.00 | 0.00 | 81 | 1011.7 |
| 20260506101241 | 12 | 18 | 6.4 | 17.7 | 0.00 | 0.00 | 0.00 | 80 | 1011.5 |
| 20260506100739 | 12 | 358 | 9.7 | 12.9 | 0.00 | 0.00 | 0.00 | 79 | 1011.3 |
| 20260506100237 | 12 | 21 | 6.4 | 11.3 | 0.00 | 0.00 | 0.00 | 80 | 1011.0 |
| 20260506095735 | 12 | 330 | 4.8 | 8.0 | 0.00 | 0.00 | 0.00 | 80 | 1011.1 |
| 20260506095232 | 12 | 32 | 8.0 | 9.7 | 0.00 | 0.00 | 0.00 | 80 | 1010.9 |
| 20260506094729 | 13 | 24 | 3.2 | 11.3 | 0.00 | 0.00 | 0.00 | 79 | 1010.9 |
| 20260506094227 | 13 | 330 | 1.6 | 8.0 | 0.00 | 0.00 | 0.00 | 79 | 1010.7 |
| 20260506093726 | 13 | 24 | 8.0 | 11.3 | 0.00 | 0.00 | 0.00 | 79 | 1010.6 |
| 20260506093222 | 13 | 100 | 4.8 | 12.9 | 0.00 | 0.00 | 0.00 | 79 | 1010.6 |
| 20260506092720 | 13 | 78 | 3.2 | 9.7 | 0.00 | 0.00 | 0.00 | 79 | 1010.7 |
| 20260506092217 | 13 | 91 | 6.4 | 12.9 | 0.00 | 0.00 | 0.00 | 79 | 1010.7 |
| 20260506091715 | 13 | 52 | 9.7 | 17.7 | 0.00 | 0.00 | 0.00 | 79 | 1010.7 |
| 20260506091212 | 13 | 64 | 8.0 | 9.7 | 0.00 | 0.00 | 0.00 | 79 | 1010.9 |
| 20260506090710 | 13 | 64 | 4.8 | 11.3 | 0.00 | 0.00 | 0.00 | 79 | 1010.6 |
| 20260506090206 | 13 | 96 | 4.8 | 11.3 | 0.00 | 0.00 | 0.00 | 79 | 1010.5 |
| 20260506085703 | 13 | 91 | 6.4 | 9.7 | 0.00 | 0.00 | 0.00 | 78 | 1010.4 |
| 20260506085159 | 13 | 72 | 3.2 | 9.7 | 0.00 | 0.00 | 0.00 | 78 | 1010.5 |
| 20260506084656 | 13 | 66 | 8.0 | 11.3 | 0.00 | 0.00 | 0.00 | 79 | 1010.6 |
| 20260506084152 | 13 | 60 | 3.2 | 6.4 | 0.00 | 0.00 | 0.00 | 79 | 1010.6 |
| 20260506083649 | 13 | 49 | 6.4 | 9.7 | 0.00 | 0.00 | 0.00 | 80 | 1010.3 |
| 20260506083147 | 13 | 68 | 3.2 | 12.9 | 0.00 | 0.00 | 0.00 | 79 | 1010.3 |
| 20260506082644 | 13 | 74 | 6.4 | 16.1 | 0.00 | 0.00 | 0.00 | 79 | 1010.3 |
| 20260506082139 | 13 | 80 | 4.8 | 8.0 | 0.00 | 0.00 | 0.00 | 80 | 1010.1 |
| 20260506081638 | 13 | 102 | 3.2 | 12.9 | 0.00 | 0.00 | 0.00 | 80 | 1010.1 |
| 20260506081135 | 13 | 76 | 6.4 | 12.9 | 0.00 | 0.00 | 0.00 | 80 | 1010.2 |
| 20260506080633 | 13 | 20 | 6.4 | 9.7 | 0.00 | 0.00 | 0.00 | 81 | 1010.2 |
| 20260506080129 | 13 | 1 | 6.4 | 9.7 | 0.00 | 0.00 | 0.00 | 81 | 1010.0 |
| 20260506073113 | 13 | 89 | 4.8 | 9.7 | 0.00 | 0.00 | 0.00 | 82 | 1010.2 |
| 20260506072609 | 13 | 116 | 4.8 | 9.7 | 0.00 | 0.00 | 0.00 | 83 | 1010.6 |
| 20260506072108 | 13 | 44 | 6.4 | 9.7 | 0.00 | 0.00 | 0.00 | 83 | 1010.5 |
| 20260506071605 | 13 | 44 | 8.0 | 8.0 | 0.00 | 0.00 | 0.00 | 83 | 1010.1 |
| 20260506071102 | 13 | 22 | 3.2 | 6.4 | 0.00 | 0.00 | 0.00 | 83 | 1010.3 |
| 20260506070559 | 13 | 41 | 6.4 | 6.4 | 0.00 | 0.00 | 0.00 | 83 | 1010.1 |
| 20260506062034 | 14 | 76 | 11.3 | 14.5 | 0.00 | 0.00 | 0.00 | 80 | 1009.4 |
| 20260506061529 | 14 | 85 | 14.5 | 16.1 | 0.00 | 0.00 | 0.00 | 80 | 1009.3 |
| 20260506061027 | 15 | 68 | 17.7 | 19.3 | 0.00 | 0.00 | 0.00 | 80 | 1009.7 |
| 20260506060525 | 15 | 74 | 6.4 | 16.1 | 0.00 | 0.00 | 0.00 | 80 | 1009.8 |
| 20260506050954 | 15 | 56 | 4.8 | 12.9 | 0.00 | 0.00 | 0.00 | 78 | 1009.9 |
| 20260506050452 | 15 | 59 | 3.2 | 12.9 | 0.00 | 0.00 | 0.00 | 78 | 1009.8 |
| 20260506044942 | 15 | 64 | 9.7 | 11.3 | 0.00 | 0.00 | 0.00 | 77 | 1010.0 |
| 20260506044441 | 15 | 52 | 1.6 | 14.5 | 0.00 | 0.00 | 0.00 | 76 | 1009.9 |
| 20260506043937 | 15 | 23 | 12.9 | 16.1 | 0.00 | 0.00 | 0.00 | 76 | 1009.8 |
| 20260506043434 | 15 | 54 | 6.4 | 11.3 | 0.00 | 0.00 | 0.00 | 77 | 1009.8 |
| 20260506042932 | 15 | 32 | 8.0 | 8.0 | 0.00 | 0.00 | 0.00 | 77 | 1009.8 |
| 20260506042431 | 15 | 88 | 0.0 | 12.9 | 0.00 | 0.00 | 0.00 | 76 | 1009.9 |
| 20260506041929 | 15 | 61 | 8.0 | 14.5 | 0.00 | 0.00 | 0.00 | 76 | 1009.9 |
| 20260506041426 | 15 | 67 | 4.8 | 9.7 | 0.00 | 0.00 | 0.00 | 76 | 1009.9 |
| 20260506040923 | 16 | 36 | 12.9 | 14.5 | 0.00 | 0.00 | 0.00 | 76 | 1009.6 |
| 20260506040421 | 16 | 55 | 4.8 | 9.7 | 0.00 | 0.00 | 0.00 | 76 | 1009.8 |
| 20260506035917 | 16 | 346 | 14.5 | 17.7 | 0.00 | 0.00 | 0.00 | 75 | 1010.0 |
| 20260506035414 | 16 | 91 | 8.0 | 19.3 | 0.00 | 0.00 | 0.00 | 75 | 1009.8 |
| 20260506034911 | 16 | 56 | 4.8 | 14.5 | 0.00 | 0.00 | 0.00 | 74 | 1009.6 |
| 20260506034408 | 16 | 28 | 9.7 | 11.3 | 0.00 | 0.00 | 0.00 | 74 | 1009.8 |
| 20260506033905 | 16 | 22 | 9.7 | 11.3 | 0.00 | 0.00 | 0.00 | 74 | 1010.0 |
| 20260506033403 | 16 | 359 | 14.5 | 19.3 | 0.00 | 0.00 | 0.00 | 74 | 1009.8 |
| 20260506032859 | 16 | 51 | 8.0 | 12.9 | 0.00 | 0.00 | 0.00 | 74 | 1009.7 |
| 20260506032356 | 16 | 30 | 6.4 | 14.5 | 0.00 | 0.00 | 0.00 | 74 | 1009.6 |
| 20260506031853 | 17 | 340 | 6.4 | 12.9 | 0.00 | 0.00 | 0.00 | 74 | 1009.3 |
| 20260506031350 | 17 | 21 | 6.4 | 12.9 | 0.00 | 0.00 | 0.00 | 73 | 1009.3 |
| 20260506030848 | 17 | 3 | 11.3 | 14.5 | 0.00 | 0.00 | 0.00 | 73 | 1008.9 |
| 20260506030346 | 17 | 34 | 8.0 | 17.7 | 0.00 | 0.00 | 0.00 | 73 | 1008.9 |
| 20260506025842 | 17 | 28 | 8.0 | 16.1 | 0.00 | 0.00 | 0.00 | 73 | 1008.7 |
| 20260506025338 | 17 | 6 | 9.7 | 19.3 | 0.00 | 0.00 | 0.00 | 73 | 1008.8 |
| 20260506024836 | 17 | 58 | 6.4 | 20.9 | 0.00 | 0.00 | 0.00 | 73 | 1008.6 |
| 20260506024333 | 17 | 25 | 8.0 | 11.3 | 0.00 | 0.00 | 0.00 | 73 | 1008.6 |
| 20260506023829 | 17 | 16 | 3.2 | 17.7 | 0.00 | 0.00 | 0.00 | 73 | 1008.7 |
| 20260506023326 | 17 | 56 | 8.0 | 9.7 | 0.00 | 0.00 | 0.00 | 73 | 1008.3 |
| 20260506022822 | 17 | 82 | 9.7 | 17.7 | 0.00 | 0.00 | 0.00 | 72 | 1007.8 |
| 20260506022320 | 18 | 78 | 8.0 | 14.5 | 0.00 | 0.00 | 0.00 | 72 | 1007.7 |
| 20260506021818 | 18 | 79 | 8.0 | 17.7 | 0.00 | 0.00 | 0.00 | 72 | 1007.7 |
| 20260506021315 | 18 | 75 | 6.4 | 12.9 | 0.00 | 0.00 | 0.00 | 72 | 1007.8 |
| 20260506020811 | 18 | 17 | 8.0 | 9.7 | 0.00 | 0.00 | 0.00 | 72 | 1007.7 |
| 20260506020309 | 18 | 60 | 4.8 | 9.7 | 0.00 | 0.00 | 0.00 | 72 | 1007.7 |
| 20260506015807 | 18 | 61 | 4.8 | 9.7 | 0.00 | 0.00 | 0.00 | 71 | 1007.4 |
| 20260506015306 | 18 | 37 | 6.4 | 11.3 | 0.00 | 0.00 | 0.00 | 71 | 1007.4 |
| 20260506014801 | 18 | 27 | 3.2 | 11.3 | 0.00 | 0.00 | 0.00 | 70 | 1007.8 |
| 20260506014257 | 18 | 22 | 8.0 | 16.1 | 0.00 | 0.00 | 0.00 | 70 | 1007.5 |
| 20260506013754 | 18 | 35 | 8.0 | 14.5 | 0.00 | 0.00 | 0.00 | 70 | 1007.3 |
| 20260506013251 | 19 | 20 | 9.7 | 9.7 | 0.00 | 0.00 | 0.00 | 69 | 1007.1 |
| 20260506012748 | 19 | 30 | 8.0 | 11.3 | 0.00 | 0.00 | 0.00 | 69 | 1006.8 |
| 20260506012245 | 19 | 46 | 8.0 | 11.3 | 0.00 | 0.00 | 0.00 | 68 | 1006.9 |
| 20260506011742 | 20 | 59 | 6.4 | 11.3 | 0.00 | 0.00 | 0.00 | 69 | 1007.0 |
| 20260506011238 | 20 | 18 | 8.0 | 14.5 | 0.00 | 0.00 | 0.00 | 68 | 1007.0 |
| 20260506010737 | 20 | 35 | 4.8 | 9.7 | 0.00 | 0.00 | 0.00 | 68 | 1006.8 |
| 20260506010234 | 20 | 41 | 6.4 | 22.5 | 0.00 | 0.00 | 0.00 | 68 | 1006.3 |
| 20260506005731 | 20 | 80 | 6.4 | 9.7 | 0.00 | 0.00 | 0.00 | 68 | 1006.0 |
| 20260506005228 | 20 | 77 | 3.2 | 17.7 | 0.00 | 0.00 | 0.00 | 67 | 1005.8 |
| 20260506004723 | 20 | 335 | 9.7 | 20.9 | 0.00 | 0.00 | 0.00 | 67 | 1006.0 |
| 20260506004221 | 21 | 24 | 8.0 | 17.7 | 0.00 | 0.00 | 0.00 | 66 | 1005.8 |
| 20260506003717 | 21 | 13 | 14.5 | 16.1 | 0.00 | 0.00 | 0.00 | 66 | 1005.7 |
| 20260506003214 | 21 | 34 | 14.5 | 16.1 | 0.00 | 0.00 | 0.00 | 66 | 1006.1 |
| 20260506002710 | 21 | 22 | 12.9 | 19.3 | 0.00 | 0.00 | 0.00 | 65 | 1006.0 |
| 20260506002206 | 21 | 62 | 4.8 | 9.7 | 0.00 | 0.00 | 0.00 | 65 | 1005.6 |
| 20260506001702 | 21 | 3 | 4.8 | 12.9 | 0.00 | 0.00 | 0.00 | 64 | 1005.5 |
| 20260506001159 | 21 | 10 | 8.0 | 17.7 | 0.00 | 0.00 | 0.00 | 63 | 1005.5 |
| 20260506000656 | 21 | 43 | 3.2 | 19.3 | 0.00 | 0.00 | 0.00 | 63 | 1005.6 |
| 20260506000154 | 22 | 113 | 3.2 | 17.7 | 0.00 | 0.00 | 0.00 | 63 | 1005.9 |
| 20260505235651 | 22 | 54 | 6.4 | 14.5 | 0.00 | 0.00 | 0.00 | 62 | 1005.8 |
| 20260505235149 | 22 | 11 | 9.7 | 16.1 | 0.00 | 0.00 | 0.00 | 62 | 1005.7 |
| 20260505234645 | 22 | 22 | 6.4 | 12.9 | 0.00 | 0.00 | 0.00 | 62 | 1005.7 |
| 20260505234142 | 22 | 9 | 6.4 | 16.1 | 0.00 | 0.00 | 0.00 | 61 | 1005.7 |
| 20260505233639 | 23 | 107 | 8.0 | 12.9 | 0.00 | 0.00 | 0.00 | 61 | 1005.4 |
| 20260505233137 | 23 | 83 | 3.2 | 9.7 | 0.00 | 0.00 | 0.00 | 62 | 1005.5 |
| 20260505232634 | 23 | 1 | 4.8 | 9.7 | 0.00 | 0.00 | 0.00 | 61 | 1005.6 |
| 20260505232132 | 23 | 18 | 8.0 | 29.0 | 0.00 | 0.00 | 0.00 | 60 | 1005.3 |
| 20260505231628 | 24 | 29 | 16.1 | 20.9 | 0.00 | 0.00 | 0.00 | 59 | 1005.4 |
| 20260505231127 | 24 | 38 | 9.7 | 22.5 | 0.00 | 0.00 | 0.00 | 58 | 1005.3 |
| 20260505230625 | 25 | 350 | 11.3 | 16.1 | 0.00 | 0.00 | 0.00 | 58 | 1005.5 |
| 20260505230121 | 25 | 32 | 11.3 | 17.7 | 0.00 | 0.00 | 0.00 | 57 | 1005.4 |
| 20260505225617 | 25 | 21 | 9.7 | 14.5 | 0.00 | 0.00 | 0.00 | 56 | 1004.9 |
| 20260505225114 | 26 | 353 | 6.4 | 14.5 | 0.00 | 0.00 | 0.00 | 55 | 1004.9 |
| 20260505224610 | 26 | 355 | 6.4 | 17.7 | 0.00 | 0.00 | 0.00 | 53 | 1005.0 |
| 20260505224108 | 27 | 115 | 6.4 | 20.9 | 0.00 | 0.00 | 0.00 | 52 | 1005.1 |
| 20260505223605 | 27 | 357 | 3.2 | 20.9 | 0.00 | 0.00 | 0.00 | 53 | 1005.1 |
| 20260505223101 | 27 | 322 | 9.7 | 14.5 | 0.00 | 0.00 | 0.00 | 53 | 1004.8 |
| 20260505222558 | 27 | 26 | 3.2 | 17.7 | 0.00 | 0.00 | 0.00 | 53 | 1004.6 |
| 20260505222054 | 28 | 2 | 12.9 | 14.5 | 0.00 | 0.00 | 0.00 | 53 | 1004.5 |
| 20260505221551 | 28 | 338 | 11.3 | 19.3 | 0.00 | 0.00 | 0.00 | 51 | 1004.6 |
| 20260505221047 | 28 | 68 | 6.4 | 17.7 | 0.00 | 0.00 | 0.00 | 51 | 1004.7 |
| 20260505220545 | 28 | 18 | 4.8 | 14.5 | 0.00 | 0.00 | 0.00 | 51 | 1004.4 |
| 20260505220043 | 28 | 25 | 3.2 | 14.5 | 0.00 | 0.00 | 0.00 | 49 | 1004.4 |
| 20260505215541 | 29 | 8 | 9.7 | 17.7 | 0.00 | 0.00 | 0.00 | 48 | 1004.4 |
| 20260505215038 | 30 | 312 | 12.9 | 14.5 | 0.00 | 0.00 | 0.00 | 44 | 1004.6 |
| 20260505214536 | 30 | 334 | 4.8 | 19.3 | 0.00 | 0.00 | 0.00 | 42 | 1004.6 |
| 20260505214032 | 31 | 20 | 4.8 | 8.0 | 0.00 | 0.00 | 0.00 | 41 | 1004.5 |
| 20260505213530 | 31 | 37 | 3.2 | 11.3 | 0.00 | 0.00 | 0.00 | 40 | 1004.3 |
| 20260505213026 | 31 | 302 | 9.7 | 12.9 | 0.00 | 0.00 | 0.00 | 39 | 1004.6 |
| 20260505212523 | 31 | 326 | 9.7 | 14.5 | 0.00 | 0.00 | 0.00 | 38 | 1004.7 |
| 20260505212020 | 31 | 113 | 1.6 | 8.0 | 0.00 | 0.00 | 0.00 | 40 | 1004.6 |
| 20260505211517 | 31 | 18 | 9.7 | 9.7 | 0.00 | 0.00 | 0.00 | 38 | 1004.7 |
| 20260505211014 | 31 | 36 | 11.3 | 16.1 | 0.00 | 0.00 | 0.00 | 38 | 1004.5 |
| 20260505210511 | 31 | 325 | 3.2 | 9.7 | 0.00 | 0.00 | 0.00 | 41 | 1004.8 |
| 20260505210008 | 31 | 341 | 3.2 | 11.3 | 0.00 | 0.00 | 0.00 | 40 | 1004.6 |
| 20260505205506 | 31 | 70 | 3.2 | 12.9 | 0.00 | 0.00 | 0.00 | 42 | 1004.3 |